Regional Weather Roundup
Issued by NWS Wakefield, VA

Home | Current Version | Previous Version | Text Only | Print | Product List | Glossary On
Versions: 1 2 3 4 5 6 7 8 9 10 11 12 13 14 15 16 17 18 19 20 21 22 23 24 25 26 27 28 29 30 31 32 33 34 35 36 37 38 39 40 41 42 43 44 45 46 47 48 49 50
000
ASUS41 KAKQ 011310
RWRAKQ

REGIONAL WEATHER ROUNDUP
NATIONAL WEATHER SERVICE WAKEFIELD VA
900 AM EDT FRI AUG 01 2014

Note: "fair" indicates few or no clouds below 12,000 feet with no
significant weather and/or obstructions to visibility. * = Denotes
station may not report precipitation (e.g., rain,snow,etc.),
thunder or fog.

VAZ042-051-052>054-056-011400-
NORTHERN VIRGINIA

CITY           SKY/WX    TMP DP  RH WIND       PRES   REMARKS
WASH NATIONAL  CLOUDY    77  68  73 S9        30.18S
DULLES         CLOUDY    72  66  81 S6        30.17S
FORT BELVOIR   CLOUDY    74  69  84 S5        30.18S
QUANTICO       CLOUDY    73  68  84 SW6       30.19S
FREDERICKSBRG* LGT RAIN  73  72  97 CALM      30.18R
STAFFORD*      CLOUDY    71  71 100 CALM      30.22S FOG
WARRENTON      CLOUDY    73  71  95 S5        30.18S
CULPEPER*      CLOUDY   N/A N/A N/A CALM      30.18S
MANASSAS*      NOT AVBL
LEESBURG*      CLOUDY    72  70  94 CALM      30.19S
WINCHESTER     CLOUDY    68  63  83 CALM      30.18S
$$

VAZ048-049-060>072-079>083-011400-
CENTRAL AND SOUTH CENTRAL VIRGINIA...AND NORTH CENTRAL NORTH CAROLINA

CITY           SKY/WX    TMP DP  RH WIND       PRES   REMARKS
RICHMOND       LGT RAIN  73  66  78 CALM      30.18S
CHESTERFIELD*  CLOUDY   N/A N/A N/A N3        30.19S
HANOVER        LGT RAIN  71  68  90 NW3       30.19F FOG
TAPPAHANNOCK*  LGT RAIN  73  66  80 CALM      30.19S
CHARLOTTSVILLE LGT RAIN  68  66  93 CALM      30.19S
ORANGE*        LGT RAIN  68  66  94 S3        30.21S
LOUISA*        LGT RAIN  70  66  88 CALM      30.20R
FARMVILLE*     RAIN      68  66  94 CALM      30.17S
SOUTH HILL*    LGT RAIN  72  72 100 N6        30.23R
ROANOKE RAPIDS CLOUDY    70  68  94 CALM      30.16R FOG
RALEIGH        CLOUDY    72  68  87 NE9       30.12F
$$

VAZ088>098-011400-
SOUTHEAST VIRGINIA

CITY           SKY/WX    TMP DP  RH WIND       PRES   REMARKS
NORFOLK        CLOUDY    76  68  76 E5        30.15F
VIRGINIA BEACH CLOUDY    76  69  79 NE6       30.14S
NORFOLK NAVAL  CLOUDY    77  69  76 E3        30.17R
WEST POINT*    CLOUDY    74  71  90 N5        30.19S
NEWPORT NEWS   LGT RAIN  77  70  79 CALM      30.17R
LANGLEY AFB    LGT RAIN  75  74  99 N2        30.15S FOG
FORT EUSTIS    CLOUDY    73  73 100 CALM      30.15S
WILLIAMSBURG*  CLOUDY    73  72  94 CALM      30.18R
FRANKLIN*      CLOUDY    70 N/A N/A CALM      30.17R
WAKEFIELD      LGT RAIN  72  68  87 CALM      30.17R
$$

VAZ020-022-025-037-045-011400-
WESTERN AND SOUTHWEST VIRGINIA

CITY           SKY/WX    TMP DP  RH WIND       PRES   REMARKS
STAUNTON*      CLOUDY    67  64  90 CALM      30.23S
HOT SPRINGS VA LGT RAIN  56  55  94 SE7       30.29S VSB<1/4
LYNCHBURG      LGT RAIN  66  64  94 CALM      30.22R
DANVILLE       LGT RAIN  67  63  87 NE8       30.17F
MARTINSVILLE   RAIN      66  65  98 NE3       30.21S
ROANOKE        LGT RAIN  66  63  90 CALM      30.23R
BLACKSBURG     RAIN      63  63 100 E5          N/A
DUBLIN*        LGT RAIN  63  63 100 E6        30.23S
MARION*        LGT RAIN  62  58  88 NE5       30.25R
HILLSVILLE*    LGT RAIN  59  57  94 E5        30.22S
RICHLANDS*     PTSUNNY   67  60  79 SE9G16    30.20R
WISE*          PTSUNNY   66  55  68 S3        30.20S
ABINGDON*      CLOUDY    67  61  80 E9        30.18S
$$

MDZ021>025-VAZ099-100-011400-
SOUTHERN MARYLAND AND THE DELMARVA PENINSULA

CITY           SKY/WX    TMP DP  RH WIND       PRES   REMARKS
PATUXENT RIVER CLOUDY    74  65  73 S5        30.17S
BAY BRIDGE APT   N/A     75  64  69 SW8       30.17F
LEONARDTOWN    CLOUDY    73  64  73 W3        30.19S
DOVER          CLOUDY    74  70  86 S5        30.16S
GEORGETOWN     CLOUDY    75  67  76 S8        30.19S
EASTON         CLOUDY    77  72  83 CALM      30.21F
CAMBRIDGE      CLOUDY    77  68  73 CALM      30.17F
SALISBURY      CLOUDY    77  67  71 CALM      30.18S
OCEAN CITY     CLOUDY    75  69  81 S3        30.19R
WALLOPS ISLAND CLOUDY    77  68  73 CALM      30.18S
ACCOMACK*      LGT RAIN  72  68  88 NE3       30.17S
$$

NCZ012>017-030>032-011400-
EASTERN NORTH CAROLINA

CITY           SKY/WX    TMP DP  RH WIND       PRES   REMARKS
ELIZABETH CITY CLOUDY    75  70  84 E6        30.15R
AHOSKIE*       CLOUDY    71  67  87 CALM      30.16R
EDENTON*       CLOUDY    73  71  93 N5        30.14R
CURRITUCK*     DRIZZLE   77  66  70 NE5       30.15R
KILL DEVIL HLS CLOUDY    76  69  78 E6        30.13R
MANTEO         NOT AVBL
CAPE HATTERAS  CLOUDY    79  76  90 E6        30.11R
GOLDSBORO      LGT RAIN  71  71  98 NE8       30.09F
WASHINGTON     CLOUDY    70  68  95 NE5       30.13R
GREENVILLE     LGT RAIN  72  70  94 NE3       30.15R
NEW BERN       HVY RAIN  75  72  88 N10       30.08F FOG
WILMINGTON     LGT RAIN  75  73  93 NE7       30.05F
$$

VAZ048-011400-
ELSEWHERE

CITY           SKY/WX    TMP DP  RH WIND       PRES   REMARKS
HARRISBURG PA  CLOUDY    73  66  78 E5        30.17S HAZE
BALTIMORE      CLOUDY    75  67  76 SW6       30.17S
ANNAPOLIS      CLOUDY    76  66  71 VRB5      30.17F
ANDREWS AFB    CLOUDY    74  67  79 S8        30.18S
WILMINGTON DE  CLOUDY    75  69  81 VRB5      30.19S
PHILADELPHIA   CLOUDY    76  68  76 SW6       30.19R
WILDWOOD NJ*   CLOUDY    75  66  73 W3        30.20S
ATLANTIC CITY  PTSUNNY   75  67  76 SW6       30.19S
HENDERSON NC   CLOUDY    69  67  93 NE10      30.15F FOG
GREENSBORO     LGT RAIN  64  63  96 NE7       30.15S FOG
ROCKY MOUNT    CLOUDY    72  68  87 N7        30.14R
FAYETTEVILLE   CLOUDY    74  70  87 E7        30.08S
CHARLOTTE      HVY RAIN  66  64  93 NE8G18    30.09F FOG
$$

VAZ100-011400-
MARINE

STATION/POSITION TIME  TEMP    WIND        PRES    WAVE   SWELL
                       AIR SEA DIR/SP/G            HT/PER HT/PER
                 (UTC) (F)     (DEG/KT/KT) (MB)    (FT/S) (FT/S)
44066 TX TWR #4  1300   74 74  150/  6/  6 1022.9R   3/ 7   3/ 7
CAPE MAY NJ      1300   74 76  240/  4/  5 1021.9R
LEWES DE         1300   74 71  240/  2/  3 1021.9S
15NM E FENWICK I 1300   74 72              1022.5R   2/ 6
OCEAN-CITY-INLET 1300   73 74  160/  2/  3 1021.9R
WACHAPREAGUE VA  1300   75 78   70/  3/  4 1021.4F
THOMAS POINT MD  1300   74 78  210/ 10/ 11 1022.2F
GOOSES REEF MD   1300   75     250/  8/ 10 1022.2S
COVE POINT MD    1300   74     260/  5/  6 1021.6S
SOLOMONS ISLAND  1300      79                N/A
BISHOPS HEAD MD  1300   77 77  210/  5/  5 1021.3F
PINEY POINT MD   1300          240/  1/  3   N/A
POTOMAC MD       1300   75     270/  2/  4 1021.0F
CAMBRIDGE MD     1300   76 78  210/  3/  4 1021.7R
LEWISETTA VA     1300   74 78  260/  2/  2 1021.5S
RAPPAHANNOCK LGT 1300           90/  5/  5 1021.9F
STINGRAY PT      1300   77      50/  2/  4 1022.0F
YORK RVR RNG VA  1300   77     100/  6/  7 1020.5F
YORKTOWN VA      1300   75 79  360/  5/  5 1020.7F
JAMESTOWN VA     1300   72      40/  4/  6   N/A
DOMINION TERM VA 1300   77      30/  1/  3 1020.9R
KIPTOPEKE VA     1300      80   70/  3/  4   N/A
CHES BAY BRIDGE  1300   76 77   50/  8/ 10 1020.2S
CAPE HENRY VA    1300   76      60/  7/  8 1019.6S
WILLOUBY STN VA  1300           80/  7/  8 1020.3R
S CRANEY ISL VA  1300           60/  5/  7 1020.9R
CAPE HENRY BUOY  1300      76                N/A     3/ 7
1ST LANDING BUOY 1300   76      60/  8/ 10 1020.5S
CAPE CHARLES BUO 1300      75                N/A     2/ 7
OFFSHORE WE BUOY 1300      77                N/A     3/ 7
64NM E OF VA BCH 1300   77 78   70/ 14/ 16 1020.6S   2/ 6   2/ 6
DUCK PIER NC     1300   77 76   80/ 11/ 12 1020.0R
44056 DUCK FRF   1300                        N/A     3/ 7
OREGON INLET NC  1300   77 79   50/  9/ 13 1020.1R
HATTERAS NC      1300   79 80   80/  6/  9 1019.9R
DIAMOND SHLS NC  1300          VRB 14/ 17  1019.0R   4/ 6   2/ 8
CAPE LOOKOUT NC  1200   79     100/ 14/ 16 1018.2R
$$


USA.gov is the U.S. government's official web portal to all federal, state and local government web resources and services.